Alliance, NE

9:06 AM MDT on June 24, 2017 (GMT -0600)
Alliance Municipal

Weather History for KAIA - December, 2013

Change the Weather History Date:

Monday, December 2, 2013

  Actual Average Record
Temperature  
Mean Temperature 47 °F 26 °F  
Max Temperature 60 °F 41 °F 69 °F (1901)
Min Temperature 33 °F 11 °F -19 °F (1985)
Degree Days  
Heating Degree Days 18 39  
Month to date heating degree days 47 78  
Since 1 July heating degree days 1777 1877  
Cooling Degree Days 0 0  
Month to date cooling degree days 0 0  
Year to date cooling degree days 795 564  
Moisture  
Dew Point 29 °F    
Average Humidity 52    
Maximum Humidity 75    
Minimum Humidity 28    
Precipitation  
Precipitation 0.00 in 0.02 in 0.58 in (1955)
Month to date precipitation 0.00 0.04  
Year to date precipitation 13.67 15.38  
Sea Level Pressure  
Sea Level Pressure 29.57 in    
Wind  
Wind Speed 16 mph (West)    
Max Wind Speed 35 mph    
Max Gust Speed 44 mph    
Visibility 10 miles    
Events      
T = Trace of Precipitation, MM = Missing Value Source: NWS Daily Summary

Daily Weather History Graph

Daily Weather History Graph

Search for Another Location

Airport or City:

Trip Planner

Search our weather history database for the weather conditions in past years. The results will help you decide how hot, cold, wet, or windy it might be!

Date:

Astronomy

Dec. 02, 2013 Rise Set
Actual Time 7:01 AM MST 4:20 PM MST
Civil Twilight 6:29 AM MST 4:51 PM MST
Nautical Twilight 5:55 AM MST 5:26 PM MST
Astronomical Twilight 5:21 AM MST 5:59 PM MST
Moon 6:27 AM MST (12/2) 4:25 PM MST (12/2)
Length of Visible Light 10h 21m
Length of Day
9h 19m
Waning Crescent, 0% of the Moon is Illuminated
Dec 2
Waning Crescent
Dec 2
New
Dec 9
First Quarter
Dec 17
Full
Dec 25
Last Quarter

Hourly Weather History & Observations

Time (MST) Temp. Windchill Dew Point Humidity Pressure Visibility Wind Dir Wind Speed Gust Speed Precip Events Conditions
12:53 AM 43.0 °F 35.7 °F 30.0 °F 60% 29.71 in 10.0 mi West 15.0 mph - N/A   Clear
1:53 AM 42.1 °F 34.5 °F 28.9 °F 60% 29.71 in 10.0 mi West 15.0 mph - N/A   Clear
2:53 AM 37.9 °F 30.9 °F 28.9 °F 70% 29.70 in 10.0 mi West 10.4 mph - N/A   Clear
3:53 AM 39.9 °F 32.9 °F 30.0 °F 68% 29.69 in 10.0 mi West 11.5 mph - N/A   Clear
4:53 AM 41.0 °F 33.9 °F 30.0 °F 65% 29.68 in 10.0 mi West 12.7 mph - N/A   Clear
5:53 AM 39.9 °F 32.5 °F 30.0 °F 68% 29.68 in 10.0 mi West 12.7 mph - N/A   Clear
6:53 AM 36.0 °F 27.5 °F 28.9 °F 76% 29.66 in 10.0 mi West 12.7 mph - N/A   Clear
7:53 AM 36.0 °F 29.0 °F 28.9 °F 76% 29.64 in 10.0 mi West 9.2 mph - N/A   Clear
8:53 AM 45.0 °F 40.1 °F 30.9 °F 58% 29.60 in 10.0 mi West 9.2 mph - N/A   Clear
9:53 AM 52.0 °F - 30.9 °F 45% 29.59 in 10.0 mi West 13.8 mph - N/A   Clear
10:53 AM 59.0 °F - 28.9 °F 32% 29.53 in 10.0 mi West 29.9 mph 38.0 mph N/A   Clear
11:53 AM 57.9 °F - 28.0 °F 32% 29.51 in 10.0 mi WNW 32.2 mph 43.7 mph N/A   Clear
12:53 PM 59.0 °F - 27.0 °F 29% 29.49 in 10.0 mi West 27.6 mph 35.7 mph N/A   Clear
1:53 PM 59.0 °F - 27.0 °F 29% 29.47 in 10.0 mi WNW 23.0 mph 32.2 mph N/A   Clear
2:53 PM 55.9 °F - 27.0 °F 33% 29.50 in 10.0 mi West 21.9 mph 28.8 mph N/A   Clear
3:53 PM 52.0 °F - 28.0 °F 40% 29.51 in 10.0 mi West 17.3 mph - N/A   Clear
4:53 PM 48.0 °F - 28.0 °F 46% 29.51 in 10.0 mi West 15.0 mph - N/A   Clear
5:53 PM 48.0 °F - 28.0 °F 46% 29.52 in 10.0 mi West 16.1 mph - N/A   Clear
6:53 PM 39.0 °F 31.8 °F 27.0 °F 62% 29.55 in 10.0 mi SW 11.5 mph - N/A   Clear
7:53 PM 46.0 °F 41.4 °F 28.0 °F 50% 29.51 in 10.0 mi West 9.2 mph - N/A   Mostly Cloudy
8:53 PM 44.1 °F 37.1 °F 28.9 °F 55% 29.49 in 10.0 mi West 15.0 mph - N/A   Mostly Cloudy
9:53 PM 46.0 °F 41.9 °F 28.0 °F 50% 29.47 in 10.0 mi West 8.1 mph - N/A   Mostly Cloudy
10:53 PM 48.0 °F - 28.0 °F 46% 29.45 in 10.0 mi West 19.6 mph 25.3 mph N/A   Overcast
11:53 PM 42.1 °F 37.1 °F 28.0 °F 58% 29.46 in 10.0 mi SSW 8.1 mph - N/A   Scattered Clouds